Location: Gwatt
(46.7204°N, 7.6223°E)
Time: 10:01:36
(UTC+00:00)

Transit 2A - Visible Passes

Search period start: 24 January 2021 00:00
Search period end: 03 February 2021 00:00
Orbit: 598 x 960 km, 66.7° (Epoch: 23 January)

Date Brightness Start Highest point End Pass type
(mag) Time Alt. Az. Time Alt. Az. Time Alt. Az.
24 Jan 9.0 02:37:33 11° NE 02:37:33 11° NE 02:37:46 10° NE visible
24 Jan 7.1 04:18:04 35° N 04:18:04 35° N 04:21:16 10° NNE visible
24 Jan 7.8 05:58:34 12° NW 06:00:26 14° NNW 06:03:13 10° N visible
25 Jan 7.8 03:45:08 24° NNE 03:45:08 24° NNE 03:47:10 10° NNE visible
25 Jan 7.5 05:25:38 18° NW 05:25:55 18° NW 05:29:24 10° N visible
26 Jan 8.5 03:12:07 15° NE 03:12:07 15° NE 03:13:00 10° NE visible
26 Jan 7.5 04:52:37 21° NNW 04:52:37 21° NNW 04:55:29 10° NNE visible
27 Jan 7.8 04:19:32 20° N 04:19:32 20° N 04:21:32 10° NNE visible
28 Jan 8.2 03:46:24 16° NNE 03:46:24 16° NNE 03:47:31 10° NNE visible
28 Jan 8.0 05:26:54 11° NNW 05:27:21 11° NNW 05:28:53 10° N visible
29 Jan 8.7 03:13:14 11° NNE 03:13:14 11° NNE 03:13:28 10° NNE visible
29 Jan 8.0 04:53:43 13° NNW 04:53:43 13° NNW 04:55:19 10° N visible
30 Jan 8.2 04:20:30 13° N 04:20:30 13° N 04:21:33 10° N visible
31 Jan 8.4 03:47:16 12° N 03:47:16 12° N 03:47:39 10° N visible
